Location: Prairie State College
(41.5244°N, 87.6382°W)
Time: 23:52:58
(UTC-05:00)

Amateur Radio Satellites - All Passes

Search period start: 28 July 2015 23:22
Search period end: 29 July 2015 23:22
Location: Prairie State College, 41.5244°N, 87.6382°W

Satellite Date Start Highest point End Downlink Frequencies (MHz)
Time Altitude Azimuth
POLYITAN 1 28 Jul 23:25:50 23:29:31 28° 95° (E) 23:33:16 437.675
TIGRISAT 28 Jul 23:30:15 23:34:56 82° 104° (ESE) 23:39:39 435.000
ANTELSAT 28 Jul 23:30:20 23:35:03 85° 104° (ESE) 23:39:47 437.575/2403.000
AIST 1 28 Jul 23:32:22 23:36:31 48° 78° (ENE) 23:40:39
VERMONT LUNAR 28 Jul 23:34:15 23:37:22 57° 193° (SSW) 23:40:28 437.305
AUBIESAT-1 28 Jul 23:41:20 23:45:18 26° 297° (WNW) 23:49:10 437.475
POPSAT HIP 1 28 Jul 23:44:14 23:48:18 44° 99° (E) 23:52:24 437.405
SPROUT 28 Jul 23:45:19 23:49:16 38° 72° (ENE) 23:53:16 437.525
QB50P2 28 Jul 23:50:48 23:55:00 55° 100° (E) 23:59:12 145.880/145.840
BEESAT 3 29 Jul 00:01:14 00:04:38 27° 115° (ESE) 00:08:09 437.485
AISAT 29 Jul 00:05:33 00:08:57 21° 267° (W) 00:12:14 437.250
BUGSAT 1 29 Jul 00:08:38 00:12:35 51° 100° (E) 00:16:33 437.445
50 SAT 29 Jul 00:09:09 00:11:19 14° 270° (W) 00:13:19 437.505
TISAT 1 29 Jul 00:12:07 00:16:08 47° 72° (ENE) 00:20:10 437.305
DUCHIFAT 1 29 Jul 00:19:46 00:24:00 74° 284° (WNW) 00:28:13 145.980
QB50P1 29 Jul 00:20:04 00:24:19 71° 285° (WNW) 00:28:32 145.935-145.965
UNISAT 6 29 Jul 00:22:25 00:26:29 29° 291° (WNW) 00:30:31 437.425
NANOSAT C BR1 29 Jul 00:22:53 00:27:07 67° 285° (WNW) 00:31:19 145.865
PHONESAT 2.4 29 Jul 00:23:44 00:27:14 77° 182° (S) 00:30:44 2401.200-2431.200
CUBEBUG 1 29 Jul 00:31:48 00:35:03 20° 268° (W) 00:38:11 437.445
RS-15 29 Jul 00:34:45 00:44:55 39° 324° (NW) 00:55:20 29.354- 29.394
ISS 29 Jul 00:40:50 00:43:16 19° 344° (NNW) 00:45:41 145.825
BEESAT 29 Jul 00:40:51 00:44:09 19° 65° (ENE) 00:47:35 436.000
Cosmos 2491 29 Jul 00:41:36 00:50:12 66° 267° (W) 00:58:45 435.465 / 435.565
ESTCUBE 1 29 Jul 00:43:44 00:46:07 14° 271° (W) 00:48:16 437.505/2401.250
BEESAT 2 29 Jul 00:52:52 00:56:57 76° 121° (ESE) 01:01:06 435.950
SWISSCUBE 29 Jul 00:59:48 01:03:59 31° 68° (ENE) 01:08:14 437.505
POLYITAN 1 29 Jul 01:01:48 01:05:20 25° 291° (WNW) 01:08:48 437.675
YUBILEINY 29 Jul 01:03:41 01:12:21 80° 96° (E) 01:21:08 435.215
TIGRISAT 29 Jul 01:09:21 01:11:06 12° 298° (WNW) 01:12:37 435.000
ANTELSAT 29 Jul 01:09:39 01:11:14 11° 298° (WNW) 01:12:33 437.575/2403.000
VERMONT LUNAR 29 Jul 01:11:29 01:13:46 18° 207° (SSW) 01:16:01 437.305
AIST 1 29 Jul 01:11:38 01:13:46 13° 274° (W) 01:15:41
ITUPSAT 1 29 Jul 01:18:32 01:23:02 43° 71° (ENE) 01:27:37 437.325
POPSAT HIP 1 29 Jul 01:21:04 01:23:52 17° 294° (WNW) 01:26:31 437.405
SPROUT 29 Jul 01:22:31 01:25:32 18° 268° (W) 01:28:26 437.525
Oscar 19 29 Jul 01:27:33 01:31:35 23° 93° (E) 01:35:45 437.125/150
QB50P2 29 Jul 01:28:10 01:30:29 14° 295° (WNW) 01:32:37 145.880/145.840
BEESAT 3 29 Jul 01:38:53 01:42:31 30° 312° (NW) 01:46:09 437.485
BUGSAT 1 29 Jul 01:45:33 01:47:41 14° 295° (WNW) 01:49:40 437.445
TISAT 1 29 Jul 01:49:52 01:52:13 14° 270° (W) 01:54:23 437.305
O/OREOS (USA 219) 29 Jul 01:52:56 01:56:52 32° 105° (ESE) 02:00:53 437.305
Gurwin Techsat 1B 29 Jul 01:58:17 02:00:41 13° 87° (E) 02:03:21 435.225
AIST 2 29 Jul 02:00:40 02:04:55 88° 123° (ESE) 02:09:13 435.215
PHONESAT 2.4 29 Jul 02:01:44 02:05:04 43° 198° (SSW) 02:08:23 2401.200-2431.200
STARS 29 Jul 02:15:06 02:17:50 17° 65° (ENE) 02:20:42 437.465
Cosmos 2504 29 Jul 02:16:26 02:21:53 26° 83° (E) 02:27:49 435.465 / 435.565
BEESAT 29 Jul 02:17:01 02:21:39 49° 261° (W) 02:26:19 436.000
ISS 29 Jul 02:18:45 02:20:38 14° 5° (N) 02:22:30 145.825
KKS-1 29 Jul 02:31:11 02:35:18 40° 71° (ENE) 02:39:27 437.445
JAS-2 29 Jul 02:31:49 02:36:14 17° 84° (E) 02:41:09 435.910
BEESAT 2 29 Jul 02:33:11 02:35:33 14° 320° (NW) 02:37:48 435.950
SWISSCUBE 29 Jul 02:37:39 02:41:50 28° 265° (W) 02:45:57 437.505
ITAMSAT 1 29 Jul 02:40:12 02:44:40 29° 95° (E) 02:49:11 435.822/435.867
Cosmos 2491 29 Jul 02:43:07 02:45:33 11° 285° (WNW) 02:47:14 435.465 / 435.565
RS-15 29 Jul 02:53:33 03:01:47 22° 357° (N) 03:10:14 29.354- 29.394
ITUPSAT 1 29 Jul 02:57:30 03:01:09 21° 268° (W) 03:04:42 437.325
MOZHAYETS 4 29 Jul 02:59:46 03:00:00 10° 61° (ENE) 03:00:31
YUBILEINY 29 Jul 03:03:42 03:10:22 23° 298° (WNW) 03:16:44 435.215
Oscar 19 29 Jul 03:06:16 03:11:09 43° 290° (WNW) 03:16:01 437.125/150
HORYU 2 29 Jul 03:30:17 03:31:14 11° 88° (E) 03:32:29 437.375
O/OREOS (USA 219) 29 Jul 03:32:34 03:36:21 25° 303° (WNW) 03:40:04 437.305
Gurwin Techsat 1B 29 Jul 03:36:01 03:41:21 75° 286° (WNW) 03:46:38 435.225
PHONESAT 2.4 29 Jul 03:40:58 03:42:32 12° 212° (SSW) 03:44:01 2401.200-2431.200
AIST 2 29 Jul 03:41:54 03:44:09 14° 322° (NW) 03:46:16 435.215
STARS 29 Jul 03:49:44 03:53:57 47° 261° (W) 03:58:11 437.465
ISS 29 Jul 03:54:55 03:57:50 29° 24° (NNE) 04:00:45 145.825
Cosmos 2504 29 Jul 04:06:39 04:13:34 56° 283° (WNW) 04:20:57 435.465 / 435.565
KKS-1 29 Jul 04:08:56 04:12:08 19° 268° (W) 04:15:12 437.445
JAS-2 29 Jul 04:14:34 04:22:24 84° 103° (ESE) 04:30:15 435.910
AO-7 29 Jul 04:18:12 04:25:58 42° 98° (E) 04:33:46 29.400- 29.500
ITAMSAT 1 29 Jul 04:19:33 04:24:13 34° 292° (WNW) 04:28:49 435.822/435.867
DANDE 29 Jul 04:25:54 04:28:11 17° 97° (E) 04:30:17 436.750
MOZHAYETS 4 29 Jul 04:31:55 04:36:34 88° 71° (ENE) 04:41:15
CUBESAT XI-V 29 Jul 04:43:07 04:44:05 11° 62° (ENE) 04:45:18 437.345
HORYU 2 29 Jul 05:03:57 05:08:28 72° 285° (WNW) 05:12:57 437.375
RS-15 29 Jul 05:09:02 05:19:06 33° 31° (NNE) 05:29:45 29.354- 29.394
CUSAT 1 29 Jul 05:10:38 05:13:45 56° 280° (W) 05:16:25 437.405
Gurwin Techsat 1B 29 Jul 05:19:22 05:20:32 10° 302° (WNW) 05:21:22 435.225
STRAND 1 29 Jul 05:25:07 05:26:23 11° 59° (ENE) 05:27:56 437.568
ISS 29 Jul 05:31:14 05:34:20 39° 222° (SW) 05:37:23 145.825
PRISM 29 Jul 05:44:26 05:44:52 10° 62° (ENE) 05:45:32 437.425
GONETS M04 29 Jul 05:45:50 05:53:21 35° 86° (E) 06:01:02
JAS-2 29 Jul 06:00:52 06:06:40 23° 300° (WNW) 06:12:17 435.910
Cubesat XI-IV 29 Jul 06:04:28 06:07:50 17° 90° (E) 06:11:26 437.490
DANDE 29 Jul 06:08:50 06:11:14 17° 284° (WNW) 06:13:17 436.750
AO-7 29 Jul 06:11:01 06:18:51 46° 297° (WNW) 06:26:33 29.400- 29.500
CUBESAT XI-V 29 Jul 06:16:11 06:20:54 88° 253° (WSW) 06:25:36 437.345
STRAND 1 29 Jul 06:59:42 07:04:52 82° 73° (ENE) 07:10:02 437.568
CUTE-I 29 Jul 07:00:10 07:05:25 57° 100° (E) 07:10:38 437.470
PRISM 29 Jul 07:15:33 07:19:45 77° 259° (WSW) 07:23:57 437.425
RS-15 29 Jul 07:21:35 07:33:26 88° 57° (ENE) 07:45:43 29.354- 29.394
GONETS M04 29 Jul 07:41:31 07:49:58 51° 285° (WNW) 07:58:21
Cubesat XI-IV 29 Jul 07:43:10 07:48:26 59° 288° (WNW) 07:53:38 437.490
HO-68 29 Jul 07:45:29 07:46:00 10° 83° (E) 07:47:10 435.675
Cosmos 2499 29 Jul 07:52:37 07:59:32 49° 90° (E) 08:07:02 435.465 / 435.565
AO-7 29 Jul 08:08:08 08:09:41 10° 318° (NW) 08:10:45 29.400- 29.500
BRITE-PL 29 Jul 08:14:58 08:19:02 40° 98° (E) 08:23:22 437.365/2234.400
BEESAT 3 29 Jul 08:19:27 08:22:29 20° 44° (NE) 08:25:32 437.485
M-CUBED/EXP-1 PRIME 29 Jul 08:21:59 08:25:09 23° 61° (ENE) 08:28:34 437.505
CUTE-I 29 Jul 08:41:17 08:45:06 20° 297° (WNW) 08:48:46 437.470
STRAND 1 29 Jul 08:42:54 08:44:48 12° 273° (W) 08:46:22 437.568
GOMX 1 29 Jul 08:43:00 08:47:19 48° 99° (E) 08:51:54 467.674
DOVE 4 29 Jul 08:48:09 08:52:16 34° 97° (E) 08:56:39 437.250
AUBIESAT-1 29 Jul 08:53:58 08:57:43 43° 66° (ENE) 09:01:49 437.475
COMPASS 1 29 Jul 08:59:14 09:02:28 21° 93° (E) 09:05:46 437.405
CUTE 1.7 + AOD 2 29 Jul 09:05:27 09:09:31 40° 97° (E) 09:13:34 437.475
SEEDS 29 Jul 09:08:11 09:12:05 34° 96° (E) 09:15:59 437.485
BEESAT 2 29 Jul 09:11:53 09:15:51 47° 53° (NE) 09:19:44 435.950
CANX-2 29 Jul 09:13:10 09:17:26 55° 100° (E) 09:21:38 2200.000
CINEMA 3 29 Jul 09:22:12 09:26:26 36° 97° (E) 09:30:52 145.822/145.860
PCSat 29 Jul 09:24:58 09:29:45 34° 111° (ESE) 09:34:38 145.827
HO-68 29 Jul 09:28:05 09:35:15 68° 103° (ESE) 09:42:25 435.675
RS-15 29 Jul 09:35:35 09:44:48 26° 256° (WSW) 09:53:35 29.354- 29.394
AAUSAT CUBESAT 2 29 Jul 09:42:58 09:47:09 57° 100° (E) 09:51:16 437.432
UNISAT 6 29 Jul 09:45:18 09:48:48 25° 68° (ENE) 09:52:27 437.425
Cosmos 2499 29 Jul 09:46:34 09:53:04 32° 292° (WNW) 09:59:52 435.465 / 435.565
ZACube-1 29 Jul 09:51:16 09:54:35 20° 92° (E) 09:58:04 437.345
DELFI C3 29 Jul 09:53:11 09:56:16 21° 93° (E) 09:59:24 145.870
BRITE-PL 29 Jul 09:54:21 09:57:24 19° 292° (WNW) 10:00:26 437.365/2234.400
M-CUBED/EXP-1 PRIME 29 Jul 09:56:17 09:59:47 31° 260° (W) 10:03:32 437.505
BEESAT 3 29 Jul 09:56:47 10:00:38 43° 243° (WSW) 10:04:25 437.485
SO-50 29 Jul 10:02:52 10:07:24 47° 117° (ESE) 10:12:07 436.795
UWE-3 29 Jul 10:06:55 10:11:11 39° 97° (E) 10:15:33 435.000/436.395/437.385
FUNcube-1 29 Jul 10:13:55 10:18:02 34° 96° (E) 10:22:12 145.935
CUBEBUG 2 29 Jul 10:15:15 10:19:48 61° 100° (E) 10:24:28 437.445
POLYITAN 1 29 Jul 10:19:22 10:22:36 22° 68° (ENE) 10:25:56 437.675
GOMX 1 29 Jul 10:22:17 10:25:12 17° 293° (WNW) 10:28:04 467.674
AIST 2 29 Jul 10:22:20 10:26:29 59° 54° (NE) 10:30:34 435.215
DOVE 4 29 Jul 10:26:15 10:29:55 24° 291° (WNW) 10:33:40 437.250
TIGRISAT 29 Jul 10:29:08 10:33:24 71° 75° (ENE) 10:37:48 435.000
ANTELSAT 29 Jul 10:29:26 10:33:44 75° 75° (ENE) 10:38:09 437.575/2403.000
AUBIESAT-1 29 Jul 10:30:13 10:32:46 16° 266° (W) 10:35:18 437.475
Oscar 11 29 Jul 10:32:31 10:36:55 90° 100° (E) 10:41:16 145.826/435.025
COMPASS 1 29 Jul 10:34:24 10:38:12 32° 289° (WNW) 10:41:55 437.405
UKube-1 29 Jul 10:35:00 10:37:14 14° 90° (E) 10:39:39 .
POPSAT HIP 1 29 Jul 10:37:13 10:40:58 34° 71° (ENE) 10:44:48 437.405
CUTE 1.7 + AOD 2 29 Jul 10:42:06 10:45:09 19° 293° (WNW) 10:48:05 437.475
QB50P2 29 Jul 10:43:48 10:47:45 41° 72° (ENE) 10:51:44 145.880/145.840
SEEDS 29 Jul 10:44:25 10:47:40 21° 292° (WNW) 10:50:49 437.485
CANX-2 29 Jul 10:50:33 10:52:55 14° 295° (WNW) 10:55:08 2200.000
BEESAT 2 29 Jul 10:50:58 10:53:32 16° 249° (WSW) 10:55:57 435.950
DX 1 29 Jul 10:56:50 11:00:31 27° 95° (E) 11:04:15 434.975-435.025
BUGSAT 1 29 Jul 10:58:51 11:02:34 35° 72° (ENE) 11:06:17 437.445
ESTCUBE 1 29 Jul 10:59:02 11:00:37 12° 88° (E) 11:02:27 437.505/2401.250
VELOX 1 29 Jul 10:59:23 11:02:13 17° 91° (E) 11:05:13 145.980
CINEMA 3 29 Jul 10:59:44 11:03:29 24° 291° (WNW) 11:07:15 145.822/145.860
HUMSAT D 29 Jul 11:04:35 11:08:48 51° 99° (E) 11:13:01 437.325/437.525
PCSat 29 Jul 11:08:09 11:13:09 36° 309° (NW) 11:18:08 145.827
DUCHIFAT 1 29 Jul 11:11:54 11:16:05 82° 74° (ENE) 11:20:17 145.980
QB50P1 29 Jul 11:12:35 11:16:48 87° 77° (ENE) 11:21:01 145.935-145.965
YUBILEINY 29 Jul 11:13:54 11:22:00 40° 71° (ENE) 11:30:12 435.215
NANOSAT C BR1 29 Jul 11:15:11 11:19:22 89° 248° (WSW) 11:23:36 145.865
HO-68 29 Jul 11:16:47 11:22:27 25° 301° (WNW) 11:27:56 435.675
AAUSAT CUBESAT 2 29 Jul 11:20:12 11:22:18 13° 295° (WNW) 11:24:14 437.432
UNISAT 6 29 Jul 11:21:41 11:25:29 29° 265° (W) 11:29:20 437.425
ZACube-1 29 Jul 11:26:53 11:31:05 39° 288° (WNW) 11:35:19 437.345
DELFI C3 29 Jul 11:27:47 11:31:23 30° 289° (WNW) 11:34:55 145.870
50 SAT 29 Jul 11:42:08 11:46:07 63° 101° (E) 11:50:03 437.505
UWE-3 29 Jul 11:43:58 11:47:30 22° 292° (WNW) 11:50:58 435.000/436.395/437.385
SO-50 29 Jul 11:44:09 11:48:11 26° 316° (NW) 11:52:17 436.795
Cosmos 2491 29 Jul 11:47:27 11:54:39 31° 85° (E) 12:02:05 435.465 / 435.565
FUNcube-1 29 Jul 11:50:33 11:54:12 24° 292° (WNW) 11:57:46 145.935
CUBEBUG 2 29 Jul 11:53:24 11:56:05 15° 295° (WNW) 11:58:36 437.445
AISAT 29 Jul 11:54:34 11:58:59 72° 102° (ESE) 12:03:23 437.250
POLYITAN 1 29 Jul 11:54:37 11:58:22 31° 264° (W) 12:02:06 437.675
O/OREOS (USA 219) 29 Jul 12:02:06 12:06:40 65° 66° (ENE) 12:11:13 437.305
AIST 1 29 Jul 12:02:08 12:05:52 29° 91° (E) 12:09:40
AIST 2 29 Jul 12:02:30 12:04:36 13° 250° (WSW) 12:06:30 435.215
UKube-1 29 Jul 12:09:31 12:13:43 51° 287° (WNW) 12:17:53 .
POPSAT HIP 1 29 Jul 12:13:49 12:16:58 20° 267° (W) 12:20:02 437.405
CUBEBUG 1 29 Jul 12:18:56 12:23:16 75° 102° (ESE) 12:27:35 437.445
QB50P2 29 Jul 12:21:08 12:23:53 16° 269° (W) 12:26:29 145.880/145.840
DX 1 29 Jul 12:33:02 12:36:43 27° 291° (WNW) 12:40:19 434.975-435.025
ESTCUBE 1 29 Jul 12:33:32 12:38:01 64° 285° (WNW) 12:42:27 437.505/2401.250
VELOX 1 29 Jul 12:34:50 12:39:02 43° 288° (WNW) 12:43:11 145.980
BUGSAT 1 29 Jul 12:35:22 12:38:11 18° 268° (W) 12:40:53 437.445
HUMSAT D 29 Jul 12:41:32 12:44:09 15° 294° (WNW) 12:46:38 437.325/437.525
Oscar 19 29 Jul 12:44:28 12:49:00 34° 69° (ENE) 12:53:38 437.125/150
SPROUT 29 Jul 13:07:16 13:11:34 76° 102° (ESE) 13:15:52 437.525
YUBILEINY 29 Jul 13:10:42 13:19:00 46° 271° (W) 13:27:11 435.215
Gurwin Techsat 1B 29 Jul 13:18:54 13:22:56 23° 65° (ENE) 13:27:08 435.225
50 SAT 29 Jul 13:18:59 13:20:12 11° 296° (WNW) 13:21:13 437.505
ITUPSAT 1 29 Jul 13:21:57 13:22:36 10° 87° (E) 13:23:35 437.325
AO-7 29 Jul 13:30:19 13:33:53 14° 46° (NE) 13:37:52 29.400- 29.500
TISAT 1 29 Jul 13:31:41 13:35:55 87° 97° (E) 13:40:08 437.305
AISAT 29 Jul 13:33:19 13:35:01 12° 297° (WNW) 13:36:31 437.250
AIST 1 29 Jul 13:40:00 13:43:33 23° 288° (WNW) 13:47:00
Cosmos 2491 29 Jul 13:42:29 13:51:07 58° 284° (WNW) 13:59:42 435.465 / 435.565
O/OREOS (USA 219) 29 Jul 13:43:37 13:45:36 12° 261° (W) 13:47:21 437.305
Cosmos 2504 29 Jul 13:51:26 13:59:25 49° 75° (ENE) 14:07:44 435.465 / 435.565
CUBEBUG 1 29 Jul 13:57:48 13:59:05 11° 297° (WNW) 14:00:08 437.445
ITAMSAT 1 29 Jul 13:58:07 14:03:04 46° 71° (ENE) 14:08:04 435.822/435.867
BEESAT 29 Jul 14:17:01 14:21:33 41° 98° (E) 14:26:03 436.000
Oscar 19 29 Jul 14:23:59 14:28:25 29° 265° (W) 14:32:48 437.125/150
JAS-2 29 Jul 14:27:23 14:32:46 36° 65° (ENE) 14:38:53 435.910
HORYU 2 29 Jul 14:29:05 14:30:25 11° 62° (ENE) 14:31:59 437.375
SWISSCUBE 29 Jul 14:36:56 14:41:44 73° 103° (ESE) 14:46:29 437.505
SPROUT 29 Jul 14:46:02 14:47:06 11° 297° (WNW) 14:47:56 437.525
ITUPSAT 1 29 Jul 14:56:23 15:01:12 81° 286° (WNW) 15:05:58 437.325
Gurwin Techsat 1B 29 Jul 14:57:32 15:02:39 47° 261° (W) 15:07:47 435.225
DANDE 29 Jul 15:02:46 15:04:44 14° 74° (ENE) 15:07:08 436.750
AO-7 29 Jul 15:16:59 15:25:06 58° 66° (ENE) 15:33:17 29.400- 29.500
ITAMSAT 1 29 Jul 15:38:46 15:42:50 22° 268° (W) 15:46:47 435.822/435.867
STARS 29 Jul 15:39:18 15:43:11 30° 96° (E) 15:47:06 437.465
CUSAT 1 29 Jul 15:43:09 15:47:00 75° 80° (E) 15:52:09 437.405
Cosmos 2504 29 Jul 15:43:58 15:51:29 37° 273° (W) 15:59:03 435.465 / 435.565
Cosmos 2491 29 Jul 15:48:08 15:50:31 11° 309° (NW) 15:52:12 435.465 / 435.565
BEESAT 29 Jul 15:55:27 15:59:09 22° 294° (WNW) 16:02:43 436.000
GONETS M04 29 Jul 15:56:10 16:01:15 17° 58° (ENE) 16:06:49
KKS-1 29 Jul 15:58:08 16:02:37 82° 103° (ESE) 16:07:05 437.445
HORYU 2 29 Jul 16:02:03 16:06:29 77° 258° (WSW) 16:10:59 437.375
JAS-2 29 Jul 16:12:23 16:17:51 37° 267° (W) 16:23:56 435.910
SWISSCUBE 29 Jul 16:16:39 16:19:03 13° 298° (WNW) 16:21:13 437.505
MOZHAYETS 4 29 Jul 16:27:45 16:31:11 21° 92° (E) 16:34:44
DANDE 29 Jul 16:44:32 16:47:47 33° 262° (W) 16:51:54 436.750
CUTE-I 29 Jul 16:45:42 16:48:05 13° 60° (ENE) 16:50:43 437.470
SO-50 29 Jul 16:56:24 16:57:05 10° 29° (NNE) 16:57:56 436.795
AO-7 29 Jul 17:10:59 17:18:21 32° 265° (W) 17:25:33 29.400- 29.500
STARS 29 Jul 17:15:51 17:19:31 25° 292° (WNW) 17:23:07 437.465
Cubesat XI-IV 29 Jul 17:26:12 17:30:48 30° 67° (ENE) 17:35:29 437.490
KKS-1 29 Jul 17:37:30 17:38:41 11° 298° (WNW) 17:39:36 437.445
Cosmos 2499 29 Jul 17:43:16 17:49:11 21° 61° (ENE) 17:55:35 435.465 / 435.565
GONETS M04 29 Jul 17:51:01 17:59:47 82° 81° (E) 18:08:33
MOZHAYETS 4 29 Jul 18:04:16 18:08:36 39° 289° (WNW) 18:12:51
PCSat 29 Jul 18:12:20 18:17:05 31° 49° (NE) 18:21:53 145.827
CUBESAT XI-V 29 Jul 18:13:28 18:17:03 23° 93° (E) 18:20:43 437.345
CUTE-I 29 Jul 18:22:07 18:27:30 88° 254° (WSW) 18:32:54 437.470
SO-50 29 Jul 18:34:10 18:38:57 46° 51° (NE) 18:43:39 436.795
PRISM 29 Jul 18:59:12 19:01:18 14° 90° (E) 19:03:35 437.425
Cubesat XI-IV 29 Jul 19:05:53 19:10:49 36° 264° (W) 19:15:44 437.490
STRAND 1 29 Jul 19:10:40 19:14:56 27° 94° (E) 19:19:16 437.568
VERMONT LUNAR 29 Jul 19:19:41 19:22:07 20° 154° (SSE) 19:24:35 437.305
BRITE-PL 29 Jul 19:26:20 19:30:38 47° 74° (ENE) 19:34:44 437.365/2234.400
Cosmos 2499 29 Jul 19:34:54 19:43:39 90° 255° (WSW) 19:52:34 435.465 / 435.565
GONETS M04 29 Jul 19:49:40 19:55:42 20° 280° (W) 20:01:20
CUBESAT XI-V 29 Jul 19:50:24 19:54:37 35° 290° (WNW) 19:58:46 437.345
COMPASS 1 29 Jul 19:51:17 19:53:49 16° 66° (ENE) 19:56:31 437.405
GOMX 1 29 Jul 19:51:51 19:56:00 51° 74° (ENE) 20:00:04 467.674
DOVE 4 29 Jul 19:54:38 19:58:20 32° 71° (ENE) 20:02:03 437.250
PCSat 29 Jul 19:55:33 20:00:39 41° 248° (WSW) 20:05:41 145.827
HO-68 29 Jul 19:56:33 20:03:22 51° 67° (ENE) 20:10:16 435.675
CUTE 1.7 + AOD 2 29 Jul 19:58:32 20:02:13 30° 70° (ENE) 20:05:59 437.475
SEEDS 29 Jul 20:00:33 20:04:00 25° 69° (ENE) 20:07:33 437.485
CANX-2 29 Jul 20:06:08 20:10:06 40° 72° (ENE) 20:14:08 2200.000
CUTE-I 29 Jul 20:07:20 20:08:28 10° 274° (W) 20:09:12 437.470
SO-50 29 Jul 20:15:18 20:19:15 24° 248° (WSW) 20:23:01 436.795
CINEMA 3 29 Jul 20:24:47 20:28:22 30° 70° (ENE) 20:32:03 145.822/145.860
PHONESAT 2.4 29 Jul 20:25:59 20:27:20 12° 147° (SSE) 20:28:45 2401.200-2431.200
PRISM 29 Jul 20:33:05 20:37:04 46° 288° (WNW) 20:40:59 437.425
AAUSAT CUBESAT 2 29 Jul 20:33:42 20:37:35 38° 72° (ENE) 20:41:32 437.432
DELFI C3 29 Jul 20:41:27 20:43:34 14° 66° (ENE) 20:45:52 145.870
ZACube-1 29 Jul 20:48:24 20:50:53 16° 65° (ENE) 20:53:33 437.345
STRAND 1 29 Jul 20:49:34 20:54:13 36° 291° (WNW) 20:58:50 437.568
VERMONT LUNAR 29 Jul 20:55:24 20:58:33 59° 169° (S) 21:01:41 437.305
UWE-3 29 Jul 21:04:38 21:08:16 30° 70° (ENE) 21:12:01 435.000/436.395/437.385
BRITE-PL 29 Jul 21:06:51 21:09:28 15° 269° (W) 21:11:51 437.365/2234.400
FUNcube-1 29 Jul 21:10:17 21:13:43 26° 69° (ENE) 21:17:17 145.935
CUBEBUG 2 29 Jul 21:13:53 21:17:53 48° 73° (ENE) 21:22:00 437.445
COMPASS 1 29 Jul 21:25:06 21:29:09 45° 262° (W) 21:33:14 437.405
Oscar 11 29 Jul 21:27:06 21:31:25 70° 75° (ENE) 21:35:45 145.826/435.025
Cosmos 2499 29 Jul 21:30:04 21:35:51 19° 280° (W) 21:41:14 435.465 / 435.565
UKube-1 29 Jul 21:30:36 21:32:40 14° 64° (ENE) 21:34:56 .
GOMX 1 29 Jul 21:32:27 21:34:31 13° 270° (W) 21:36:21 467.674
DOVE 4 29 Jul 21:33:05 21:36:14 20° 267° (W) 21:39:15 437.250
CUTE 1.7 + AOD 2 29 Jul 21:34:39 21:38:09 24° 267° (W) 21:41:36 437.475
SEEDS 29 Jul 21:36:03 21:39:43 28° 265° (W) 21:43:22 437.485
M-CUBED/EXP-1 PRIME 29 Jul 21:36:53 21:40:27 21° 96° (E) 21:44:05 437.505
CANX-2 29 Jul 21:43:16 21:46:14 18° 269° (W) 21:49:05 2200.000
RS-15 29 Jul 21:45:09 21:55:36 57° 114° (ESE) 22:06:29 29.354- 29.394
HO-68 29 Jul 21:45:11 21:51:25 31° 266° (W) 21:57:31 435.675
DX 1 29 Jul 21:52:46 21:56:17 25° 68° (ENE) 21:59:54 434.975-435.025
HUMSAT D 29 Jul 21:56:32 22:00:16 35° 71° (ENE) 22:04:07 437.325/437.525
VELOX 1 29 Jul 21:57:34 22:00:20 17° 65° (ENE) 22:03:14 145.980
Cosmos 2491 29 Jul 21:58:01 22:02:18 15° 56° (NE) 22:07:08 435.465 / 435.565
ESTCUBE 1 29 Jul 21:59:14 22:01:08 13° 63° (ENE) 22:03:14 437.505/2401.250
PHONESAT 2.4 29 Jul 22:01:27 22:04:47 41° 162° (SSE) 22:08:07 2401.200-2431.200
CINEMA 3 29 Jul 22:02:25 22:05:40 21° 267° (W) 22:08:51 145.822/145.860
AUBIESAT-1 29 Jul 22:08:24 22:12:48 37° 101° (E) 22:17:09 437.475
ISS 29 Jul 22:10:13 22:13:23 54° 141° (SE) 22:16:35 145.825
AAUSAT CUBESAT 2 29 Jul 22:10:27 22:13:23 18° 269° (W) 22:16:10 437.432
DELFI C3 29 Jul 22:14:20 22:18:16 48° 261° (W) 22:22:14 145.870
TIGRISAT 29 Jul 22:21:42 22:24:27 16° 90° (E) 22:27:24 435.000
ANTELSAT 29 Jul 22:22:09 22:25:03 17° 90° (E) 22:28:11 437.575/2403.000
ZACube-1 29 Jul 22:22:53 22:26:53 45° 262° (W) 22:31:00 437.345
50 SAT 29 Jul 22:26:05 22:29:35 34° 72° (ENE) 22:33:11 437.505
VERMONT LUNAR 29 Jul 22:32:03 22:35:13 70° 187° (S) 22:38:22 437.305
UWE-3 29 Jul 22:41:32 22:44:52 22° 267° (W) 22:48:09 435.000/436.395/437.385
FUNcube-1 29 Jul 22:46:28 22:50:01 26° 266° (W) 22:53:34 145.935
AISAT 29 Jul 22:52:13 22:56:35 65° 74° (ENE) 23:00:58 437.250
CUBEBUG 2 29 Jul 22:52:44 22:54:58 14° 271° (W) 22:57:02 437.445
DUCHIFAT 1 29 Jul 22:58:06 22:59:57 13° 89° (E) 23:02:01 145.980
QB50P1 29 Jul 22:59:00 23:01:09 14° 90° (E) 23:03:30 145.935-145.965
NANOSAT C BR1 29 Jul 23:01:15 23:03:32 15° 90° (E) 23:06:00 145.865
UKube-1 29 Jul 23:04:06 23:08:22 59° 259° (W) 23:12:39 .
Oscar 11 29 Jul 23:07:23 23:08:10 10° 273° (W) 23:08:40 145.826/435.025
M-CUBED/EXP-1 PRIME 29 Jul 23:10:49 23:15:25 46° 294° (WNW) 23:19:56 437.505
UNISAT 6 29 Jul 23:12:26 23:17:02 55° 100° (E) 23:21:40 437.425
